When you browse on this site, cookies collect data to enhance your experience and personalize the content and advertising you see.
Visit our Privacy Policy to learn more. By continuing to use the site, you agree to this use of cookies and data.
  • en France
  • Liste des pays
  • À 7 jours
  • Température de l'eau
  • Carte satellitaire
  • Carte météo
  • Widgets météo
  • user-avatar
    Se connecter

    Météo par heure à Hadakolob

    Ce jour, 12 Décembre, Mercredi

    Heure Température Précipitation Vent Pression Humidité
    00:00 0°C° 0 mm 3 m/s 618 mmHg 76%
    01:00 -1°C° 0 mm 3 m/s 618 mmHg 77%
    02:00 -1°C° 0 mm 3 m/s 618 mmHg 78%
    03:00 -1°C° 0 mm 3 m/s 619 mmHg 79%
    04:00 -1°C° 0 mm 3 m/s 619 mmHg 79%
    05:00 -2°C° 0 mm 3 m/s 619 mmHg 78%
    06:00 -2°C° 0 mm 3 m/s 619 mmHg 78%
    07:00 -1°C° 0 mm 3 m/s 619 mmHg 75%
    08:00 0°C° 0 mm 3 m/s 619 mmHg 71%
    09:00 0°C° 0 mm 3 m/s 620 mmHg 68%
    10:00 +1°C° 0.1 mm 3 m/s 619 mmHg 68%
    11:00 +2°C° 0.1 mm 3 m/s 619 mmHg 68%
    12:00 +2°C° 0.1 mm 3 m/s 619 mmHg 68%
    13:00 +2°C° 0.7 mm 3 m/s 619 mmHg 71%
    14:00 +2°C° 0.7 mm 3 m/s 618 mmHg 73%
    15:00 +2°C° 0.7 mm 3 m/s 617 mmHg 75%
    16:00 +1°C° 0.6 mm 3 m/s 617 mmHg 76%
    17:00 +1°C° 0.6 mm 3 m/s 617 mmHg 77%
    18:00 +1°C° 0.6 mm 3 m/s 618 mmHg 78%
    19:00 +1°C° 0.4 mm 3 m/s 617 mmHg 78%
    20:00 +1°C° 0.4 mm 3 m/s 617 mmHg 78%
    21:00 +1°C° 0.4 mm 3 m/s 617 mmHg 78%
    22:00 +1°C° 0.3 mm 3 m/s 617 mmHg 79%
    23:00 +1°C° 0.3 mm 3 m/s 617 mmHg 79%

    Demain, 13 Décembre, Jeudi

    Heure Température Précipitation Vent Pression Humidité
    00:00 +1°C° 0.3 mm 3 m/s 618 mmHg 79%
    01:00 0°C° 0.1 mm 3 m/s 618 mmHg 80%
    02:00 0°C° 0.1 mm 3 m/s 617 mmHg 81%
    03:00 -1°C° 0.1 mm 3 m/s 617 mmHg 82%
    04:00 -1°C° 0 mm 3 m/s 617 mmHg 82%
    05:00 -2°C° 0 mm 3 m/s 617 mmHg 82%
    06:00 -4°C° 0 mm 3 m/s 617 mmHg 82%
    07:00 -2°C° 0.1 mm 3 m/s 618 mmHg 80%
    08:00 -2°C° 0.1 mm 2 m/s 618 mmHg 79%
    09:00 -2°C° 0.1 mm 2 m/s 619 mmHg 77%
    10:00 -1°C° 0.2 mm 2 m/s 619 mmHg 77%
    11:00 -1°C° 0.2 mm 3 m/s 619 mmHg 78%
    12:00 0°C° 0.2 mm 3 m/s 620 mmHg 78%
    13:00 -1°C° 0.3 mm 3 m/s 620 mmHg 79%
    14:00 -1°C° 0.3 mm 3 m/s 620 mmHg 80%
    15:00 -1°C° 0.3 mm 3 m/s 621 mmHg 81%
    16:00 -2°C° 0.2 mm 2 m/s 621 mmHg 83%
    17:00 -3°C° 0.2 mm 2 m/s 621 mmHg 85%
    18:00 -3°C° 0.2 mm 2 m/s 622 mmHg 88%
    19:00 -4°C° 0.1 mm 2 m/s 622 mmHg 86%
    20:00 -5°C° 0.1 mm 2 m/s 622 mmHg 84%
    21:00 -3°C° 0.1 mm 1 m/s 622 mmHg 82%
    22:00 -6°C° 0 mm 2 m/s 622 mmHg 79%
    23:00 -6°C° 0 mm 2 m/s 622 mmHg 76%

    Après-demain, 14 Décembre, Vendredi

    Heure Température Précipitation Vent Pression Humidité
    00:00 -7°C° 0 mm 2 m/s 622 mmHg 73%
    01:00 -7°C° 0 mm 2 m/s 622 mmHg 71%
    02:00 -7°C° 0 mm 2 m/s 623 mmHg 70%
    03:00 -7°C° 0 mm 2 m/s 623 mmHg 69%
    04:00 -8°C° 0 mm 2 m/s 623 mmHg 68%
    05:00 -8°C° 0 mm 2 m/s 623 mmHg 68%
    06:00 -8°C° 0 mm 2 m/s 623 mmHg 67%
    07:00 -7°C° 0 mm 2 m/s 624 mmHg 66%
    08:00 -7°C° 0 mm 2 m/s 624 mmHg 65%
    09:00 -6°C° 0 mm 2 m/s 625 mmHg 64%
    10:00 -5°C° 0 mm 2 m/s 625 mmHg 62%
    11:00 -4°C° 0 mm 2 m/s 625 mmHg 61%
    12:00 -3°C° 0 mm 2 m/s 625 mmHg 59%
    13:00 -3°C° 0 mm 2 m/s 625 mmHg 60%
    14:00 -3°C° 0 mm 2 m/s 625 mmHg 62%
    15:00 -2°C° 0 mm 1 m/s 625 mmHg 63%
    16:00 -3°C° 0 mm 1 m/s 625 mmHg 65%
    17:00 -4°C° 0 mm 1 m/s 625 mmHg 67%
    18:00 -6°C° 0 mm 1 m/s 625 mmHg 70%
    19:00 -6°C° 0 mm 1 m/s 625 mmHg 70%
    20:00 -6°C° 0 mm 1 m/s 625 mmHg 70%
    21:00 -6°C° 0 mm 1 m/s 625 mmHg 70%
    22:00 -8°C° 0 mm 2 m/s 625 mmHg 70%
    23:00 -8°C° 0 mm 2 m/s 625 mmHg 70%

    15 Décembre, Samedi

    Heure Température Précipitation Vent Pression Humidité
    00:00 -8°C° 0 mm 2 m/s 625 mmHg 70%
    01:00 -9°C° 0 mm 2 m/s 624 mmHg 70%
    02:00 -9°C° 0 mm 2 m/s 624 mmHg 69%
    03:00 -10°C° 0 mm 2 m/s 624 mmHg 69%
    04:00 -10°C° 0 mm 2 m/s 624 mmHg 67%
    05:00 -10°C° 0 mm 2 m/s 624 mmHg 65%
    06:00 -10°C° 0 mm 2 m/s 625 mmHg 63%
    07:00 -9°C° 0 mm 2 m/s 625 mmHg 61%
    08:00 -7°C° 0 mm 1 m/s 626 mmHg 58%
    09:00 -6°C° 0 mm 1 m/s 626 mmHg 56%
    10:00 -3°C° 0 mm 1 m/s 627 mmHg 52%
    11:00 -2°C° 0 mm 1 m/s 627 mmHg 49%
    12:00 -1°C° 0 mm 1 m/s 627 mmHg 46%
    13:00 -1°C° 0 mm 1 m/s 627 mmHg 48%
    14:00 -1°C° 0 mm 1 m/s 627 mmHg 51%
    15:00 -2°C° 0 mm 1 m/s 627 mmHg 53%
    16:00 -3°C° 0 mm 1 m/s 627 mmHg 53%
    17:00 -4°C° 0 mm 1 m/s 626 mmHg 53%
    18:00 -7°C° 0 mm 2 m/s 626 mmHg 52%
    19:00 -7°C° 0 mm 2 m/s 626 mmHg 50%
    20:00 -7°C° 0 mm 2 m/s 626 mmHg 48%
    21:00 -7°C° 0 mm 2 m/s 626 mmHg 45%
    22:00 -7°C° 0 mm 2 m/s 626 mmHg 45%
    23:00 -7°C° 0 mm 2 m/s 626 mmHg 46%

    16 Décembre, Dimanche

    Heure Température Précipitation Vent Pression Humidité
    00:00 -7°C° 0 mm 2 m/s 626 mmHg 46%
    01:00 -7°C° 0 mm 2 m/s 626 mmHg 47%
    02:00 -7°C° 0 mm 2 m/s 626 mmHg 48%
    03:00 -7°C° 0 mm 2 m/s 627 mmHg 49%
    04:00 -6°C° 0 mm 2 m/s 627 mmHg 49%
    05:00 -6°C° 0 mm 2 m/s 627 mmHg 50%
    06:00 -6°C° 0 mm 2 m/s 627 mmHg 50%
    07:00 -5°C° 0 mm 2 m/s 627 mmHg 50%
    08:00 -4°C° 0 mm 2 m/s 628 mmHg 50%
    09:00 -3°C° 0 mm 2 m/s 628 mmHg 50%
    10:00 -2°C° 0 mm 2 m/s 628 mmHg 50%
    11:00 -1°C° 0 mm 2 m/s 628 mmHg 49%
    12:00 +2°C° 0 mm 2 m/s 628 mmHg 49%
    13:00 +1°C° 0 mm 2 m/s 628 mmHg 51%
    14:00 +1°C° 0 mm 2 m/s 628 mmHg 54%
    15:00 +2°C° 0 mm 1 m/s 627 mmHg 56%
    16:00 -2°C° 0 mm 2 m/s 627 mmHg 55%
    17:00 -3°C° 0 mm 2 m/s 627 mmHg 53%
    18:00 -5°C° 0 mm 2 m/s 626 mmHg 52%
    19:00 -4°C° 0 mm 2 m/s 626 mmHg 51%
    20:00 -4°C° 0 mm 2 m/s 626 mmHg 51%
    21:00 -4°C° 0 mm 2 m/s 626 mmHg 51%
    22:00 -4°C° 0 mm 2 m/s 626 mmHg 53%
    23:00 -4°C° 0 mm 2 m/s 626 mmHg 54%

    17 Décembre, Lundi

    Heure Température Précipitation Vent Pression Humidité
    00:00 -4°C° 0 mm 2 m/s 625 mmHg 56%
    01:00 -4°C° 0 mm 2 m/s 625 mmHg 57%
    02:00 -4°C° 0 mm 2 m/s 625 mmHg 58%
    03:00 -4°C° 0 mm 2 m/s 625 mmHg 59%
    04:00 -4°C° 0 mm 2 m/s 625 mmHg 60%
    05:00 -4°C° 0 mm 2 m/s 625 mmHg 61%
    06:00 -4°C° 0 mm 2 m/s 625 mmHg 61%
    07:00 -1°C° 0 mm 1 m/s 625 mmHg 62%
    08:00 -1°C° 0 mm 1 m/s 626 mmHg 62%
    09:00 0°C° 0 mm 1 m/s 626 mmHg 62%
    10:00 +1°C° 0 mm 1 m/s 626 mmHg 61%
    11:00 +2°C° 0 mm 1 m/s 626 mmHg 60%
    12:00 +3°C° 0 mm 1 m/s 626 mmHg 59%
    13:00 +3°C° 0 mm 1 m/s 626 mmHg 62%
    14:00 +2°C° 0 mm 1 m/s 626 mmHg 64%
    15:00 +2°C° 0 mm 1 m/s 625 mmHg 67%
    16:00 +1°C° 0 mm 1 m/s 625 mmHg 68%
    17:00 0°C° 0 mm 1 m/s 625 mmHg 69%
    18:00 -4°C° 0 mm 2 m/s 625 mmHg 69%
    19:00 -4°C° 0 mm 2 m/s 625 mmHg 67%
    20:00 -4°C° 0 mm 2 m/s 625 mmHg 64%
    21:00 -4°C° 0 mm 2 m/s 625 mmHg 62%
    22:00 -4°C° 0 mm 2 m/s 625 mmHg 61%
    23:00 -4°C° 0 mm 2 m/s 625 mmHg 61%
    Voir plus